www.pogodaiklimat.ru

Погода и климат >> Архив погоды >> Вануату >> Санто-Пекоа


ПОГОДА в Санто-Пекоа

  • Прогноз погоды в Санто-Пекоа
  • Монитор погоды в Санто-Пекоа

АРХИВ ПОГОДЫ в Санто-Пекоа

Время (UTC), дата Ветер
(напр.,м/с)
 
Видим.   Явления Облачность Т
(С)
Тd
(С)
f
(%)
Тe
(С)
Тes
(С)
Комфортность P
(гПа)
Po
(гПа)
Тmin
(С)
Tmax
(С)
R
(мм)
R24
(мм)
S
(см)
21 14.03 ЮЗ 1 20 км 5/5 750 м
[Cu med, cong Ci]
+26.8 +24.2 86 +37 +41 очень
душно
1010.8 1005.7
00 15.03 Ю 3 20 км 6/4 750 м
[Cu Sc Ac cast Cc]
+29.3 +24.6 76 +42 +50 опасность
перегрева
1010.7 1005.7 +21.1
03 15.03 В 4 20 км 5/3 750 м
[Cu med, cong Ac cast Ci]
+30.0 +22.6 65 +40 +46 очень
душно
1008.5 1003.5
06 15.03 ЮВ 2 20 км 5/3 750 м
[Cu med, cong Cs]
+29.3 +22.8 68 +39 +40 очень
душно
1008.1 1003.1
09 15.03 З 2 20 км 1/1 750 м
[Cu hum]
+23.0 +22.3 96 +31 +31 очень
душно
1010.3 1005.2
12 15.03 штиль 0 20 км 1/1 750 м
[Cu hum Ac trans]
+22.2 +22.2 100 +30 +30 очень
душно
1011.0 1005.9
15 15.03 З 2 н/о н/о +22.1 +22.1 100 +29 +29 очень
душно
1009.4 1004.5
18 15.03 З 2 н/о н/о +22.8 +22.8 100 +31 +31 очень
душно
1009.3 1004.4
21 15.03 ЮЗ 2 20 км 3/3 750 м
[Cu Sc]
+26.5 +24.4 88 +37 +42 очень
душно
1011.0 1005.9
00 16.03 Ю 3 20 км 4/4 750 м
[Cu Sc]
+29.3 +24.6 76 +42 +51 опасность
перегрева
1011.1 1006.1 +21.5
03 16.03 Ю 3 20 км 3/3 750 м
[Cu med, cong]
+30.7 +23.4 65 +41 +50 опасность
перегрева
1008.7 1003.7
06 16.03 Ю 2 20 км 4/1 750 м
[Cu med, cong Cs]
+30.1 +24.4 72 +42 +43 опасность
перегрева
1008.4 1003.4
09 16.03 штиль 0 20 км 3/1 750 м
[Cu med, cong Ac trans]
+25.5 +24.2 93 +35 +35 очень
душно
1010.7 1005.6
12 16.03 штиль 0 20 км 3/3 750 м
[Cu med, cong]
+26.2 +24.5 90 +37 +37 очень
душно
1011.3 1006.2
18 16.03 З 1 20 км 3/3 750 м
[Cu med, cong]
+24.8 +24.5 98 +35 +35 очень
душно
1010.1 1005.0
21 16.03 В 2 20 км в посл. час ливневой дождь 6/4 750 м
[Cu Sc Ac trans]
+27.7 +26.0 90 +41 +44 опасность
перегрева
1011.5 1006.5
00 17.03 ЮВ 4 20 км 5/5 750 м
[Cu Sc]
+31.3 +26.0 74 +47 +54 опасность
перегрева
1010.9 1005.9 +24.6 0.7
03 17.03 Ю 2 20 км 5/5 750 м
[Cu Sc]
+30.4 +26.1 78 +46 +53 опасность
перегрева
1008.4 1003.4
06 17.03 ЮВ 3 20 км 4/4 750 м
[Cu Sc]
+30.5 +25.6 75 +45 +45 опасность
перегрева
1008.5 1003.5
09 17.03 В 1 20 км 1/1 750 м
[Cu med, cong]
+27.3 +26.0 93 +41 +41 опасность
перегрева
1010.6 1005.6
12 17.03 Ю 1 20 км 6/6 750 м
[Cu Sc]
+27.6 +25.9 90 +41 +41 опасность
перегрева
1011.3 1006.3 +32.9
15 17.03 ЮЗ 2 20 км зарница 6/6 600 м
[Cb cap]
+26.6 +25.8 95 +39 +39 очень
душно
1010.0 1004.9
18 17.03 ЮЗ 2 20 км в посл. час гроза 8/5 600 м
[Cu Sc As trans]
+24.8 +23.6 93 +34 +34 очень
душно
1010.4 1005.3 2
21 17.03 ЮЗ 1 20 км слаб. ливневой дождь 9/5 600 м
[Cu Sc As trans]
+26.0 +25.3 96 +38 +39 очень
душно
1011.5 1006.4
00 18.03 ЮВ 6 20 км {ливн. осадки} 5/5 600 м
[Cb cap]
+30.3 +24.2 70 +42 +47 опасность
перегрева
1010.5 1005.5 +24.0 5
03 18.03 ЮВ 6 20 км {ливн. осадки} 5/5 600 м
[Cb cap]
+30.9 +23.9 66 +42 +45 опасность
перегрева
1008.1 1003.1
06 18.03 ЮВ 4 20 км 4/4 600 м
[Cu med, cong]
+29.2 +24.8 77 +42 +42 опасность
перегрева
1007.6 1002.6
09 18.03 ЮВ 3 20 км 3/3 750 м
[Cu med, cong]
+27.8 +24.3 81 +39 +39 очень
душно
1009.8 1004.8
12 18.03 ЮВ 3 20 км в посл. час гроза 6/4 750 м
[Cb cap Ac trans]
+27.7 +24.8 84 +39 +39 очень
душно
1010.4 1005.4
15 18.03 ЮВ 3 н/о н/о +27.5 +24.8 85 +39 +39 очень
душно
1008.8 1004.0
18 18.03 ЮВ 3 20 км 4/4 750 м
[Cu med, cong]
+27.0 +25.9 94 +40 +40 очень
душно
1008.9 1003.9
21 18.03 СЗ 3 20 км 8/5 750 м
[Cu Sc Ac As]
+27.5 +23.0 76 +37 +38 очень
душно
1010.4 1005.4
00 19.03 В 5 20 км в посл. час ливневой дождь 6/4 750 м
[Cu med, cong Ac trans]
+31.0 +25.6 73 +46 +51 опасность
перегрева
1010.0 1005.0 +26.5 0.9
03 19.03 ЮВ 4 20 км 4/4 750 м
[Cu med, cong Ac trans]
+31.0 +24.7 69 +44 +50 опасность
перегрева
1007.9 1002.9
06 19.03 В 4 20 км {ливн. осадки} 4/3 750 м
[Cu med, cong Cs]
+30.0 +24.5 72 +42 +43 опасность
перегрева
1007.6 1002.6
09 19.03 Ю 3 20 км 5/4 750 м
[Cu med, cong Ac trans]
+27.4 +26.4 94 +42 +42 опасность
перегрева
1010.4 1005.4
12 19.03 В 3 20 км слаб. ливневой дождь 8/8 540 м
[Cb cap Ac trans]
+24.5 +24.3 99 +34 +34 очень
душно
1011.6 1006.5 0.3
15 19.03 СЗ 3 н/о н/о +21.9 +21.9 100 +29 +29 очень
душно
1009.6 1004.8
18 19.03 штиль 0 20 км в посл. час ливневой дождь 9/9 600 м
[Cu Sc]
+22.9 +22.8 99 +31 +31 очень
душно
1009.5 1004.4 5
21 19.03 С 2 20 км {ливн. осадки} 8/8 600 м
[Cu Sc Ac As]
+25.8 +24.2 91 +36 +37 очень
душно
1010.5 1005.4
00 20.03 В 2 20 км 5/3 750 м
[Cu med, cong Ac cast Cs]
+30.0 +25.1 75 +43 +55 опасность
перегрева
1010.6 1005.6 +21.8 10
03 20.03 В 3 20 км 5/5 750 м
[Cu Sc]
+30.5 +24.7 71 +43 +50 опасность
перегрева
1008.5 1003.5
06 20.03 В 2 20 км 4/4 750 м
[Cu med, cong]
+29.5 +23.8 71 +40 +41 очень
душно
1008.1 1003.1
09 20.03 СЗ 1 20 км 5/1 750 м
[Cu med, cong Ac trans]
+25.8 +25.2 96 +37 +37 очень
душно
1010.1 1005.0
12 20.03 СЗ 2 20 км 5/5 750 м
[Cu Sc As trans]
+24.7 +23.7 94 +34 +34 очень
душно
1011.0 1005.9 +31.3
15 20.03 СЗ 1 20 км 9/9 750 м
[Cu Sc]
+24.3 +23.9 98 +33 +33 очень
душно
1009.6 1004.5
18 20.03 ЮЗ 1 20 км в посл. час ливневой дождь 4/1 750 м
[Cu med, cong Ac As]
+23.2 +23.1 99 +32 +32 очень
душно
1009.4 1004.3 1
21 20.03 ЮЗ 1 20 км 4/1 750 м
[Cu med, cong Ac trans Cs]
+27.0 +25.0 89 +39 +44 очень
душно
1010.5 1005.5
00 21.03 СВ 3 20 км 6/4 750 м
[Cu Sc Cs]
+30.8 +25.0 71 +44 +53 опасность
перегрева
1010.6 1005.6 +22.7 1
03 21.03 В 4 20 км 6/6 750 м
[Cu Sc]
+30.5 +24.9 72 +44 +48 опасность
перегрева
1008.9 1003.9
06 21.03 В 2 20 км 8/8 750 м
[Cu Sc]
+29.8 +24.4 73 +42 +42 опасность
перегрева
1008.3 1003.3
09 21.03 СЗ 2 20 км зарница {ливн. осадки} 5/5 750 м
[Cb cap Ac trans]
+24.8 +23.5 92 +33 +33 очень
душно
1010.6 1005.5
12 21.03 штиль 0 20 км в посл. час ливневой дождь 6/6 750 м
[Cb cap Ac trans]
+24.9 +23.7 93 +34 +34 очень
душно
1011.4 1006.3 0.3
18 21.03 З 1 20 км 3/3 750 м
[Cu med, cong Ci fib]
+23.7 +23.5 99 +32 +32 очень
душно
1010.2 1005.1

 

Местоположение метеостанции Санто-Пекоа (Вануату): широта -15.51 долгота 167.21 высота над уровнем моря 44 м.

В архиве по умолчанию представлена погода в Санто-Пекоа за последнюю неделю. Архивные данные за месяц целиком и за предыдущие месяцы, начиная с января 2011 года, Вы можете получить, выбрав интересующий диапазон дат из раскрывающегося списка и нажав кнопку "Ввод!".


*Определитесь, кто Вы:
робот инопланетянин человек

Внимание! Время в таблицах - всемирное. Для получения местного времени необходимо прибавить поправку, которая равна 11 ч.

Смотрите также архив погоды в соседних городах и на ближайших метеорологических станциях:

Погода в Саратамате (Вануату) (45 км)
Погода в Ламапе (Вануату) (118 км)
Погода в Соле (Вануату) (188 км)
Погода на Линуа (Вануату) (252 км)
Погода в Порт-Виле (Вануату) (270 км)
Погода на Эроманге (Вануату) (402 км)
Погода в Уайт Грасс (Вануату) (487 км)
Погода на Острове Сюрприз (Новая Каледония) (550 км)
Погода на Островах Санта-Круз (Соломоновы Острова) (556 км)
Погода на Острове Увеа (Новая Каледония) (576 км)

Пояснения к столбцам:

Ветер - указаны скорость ветра в м/с - средняя за 10 мин, порывы в срок и между сроками (в фигурных скобках) и направление, откуда дует ветер: С - северный, СВ - северо-восточный, В - восточный, ЮВ - юго-восточный, Ю - южный, ЮЗ - юго-западный, З - западный, СЗ - северо-западный.
Видимость - горизонтальная дальность видимости в метрах или километрах. При видимости от 1 до 10 км при отсутствии осадков обычно наблюдается дымка, при ухудшении видимости до 1 км и менее - туман. В сухую погоду видимость может ухудшаться дымом, пылью или мглою.
Явления - указаны атмосферные явления, наблюдавшиеся в срок или в последний час перед сроком; фигурными скобками обозначены явления, наблюдавшиеся между сроками (за 1-3 часа до срока); квадратными скобками обозначены град или гололедные отложения с указанием их диаметра в мм.
Облачность - указаны через наклонную черту общая и нижняя облачность в баллах и высота нижней границы облаков в метрах; квадратными скобками обозначены формы облаков: Ci - перистые, Cs - перисто-слоистые, Cc - перисто-кучевые, Ac - высококучевые, As - высокослоистые, Sc - слоисто-кучевые, Ns - слоисто-дождевые, Cu - кучевые, Cb - кучево-дождевые. Подробнее классификацию облаков см. в Атласе облаков (PDF).
T - Температура воздуха - температура, измеренная на высоте 2 м над землей.
Td - Температура точки росы - температура, при понижении до которой содержащийся в воздухе водяной пар достигнет насыщения.
f - Относительная влажность воздуха - влажноcть воздуха, измеренная на высоте 2 м над землей.
Te - Эффективная температура - температура, которую ощущает одетый по сезону человек в тени. Характеристика душности погоды. При расчете учитывается влияние влажности воздуха и скорости ветра на теплоощущения человека.
Tes - Эффективная температура на солнце - температура, которую ощущает человек, с поправкой на солнечный нагрев. Характеристика знойности погоды. Зависит от высоты солнца над горизонтом, облачности и скорости ветра. Ночью, в пасмурную погоду, а также при ветре 12 м/с и более поправка равна нулю.
P - Атмосферное давление - приведенное к уровню моря атмосферное давление.
Po - Атмосферное давление - измеренное на уровне метеостанции атмосферное давление.
Tmin - Минимальная температура - минимум температуры воздуха на высоте 2 м над землей.
Tmax - Максимальная температура - максимум температуры воздуха на высоте 2 м над землей.
R - Количество осадков - Количество выпавших осадков за период времени, мм. При наведении курсора мыши на число - период времени, за который выпало указанное количество осадков.
R24 - Количество осадков - Количество выпавших осадков за 24 часа, мм.
S - Снежный покров - Высота снежного покрова, см. При наведении курсора мыши на число - состояние снежного покрова и степень покрытия местности в баллах.